Regional Weather Roundup
Issued by NWS

Home | Current Version | Previous Version | Graphics & Text | Print | Product List | Glossary On
Versions: 1 2 3 4 5 6 7 8 9 10 11 12 13 14 15 16 17 18 19 20 21 22 23 24 25 26 27 28 29 30 31 32 33 34 35 36 37 38 39 40 41 42 43 44 45 46 47 48 49 50
000
ASUS43 KBIS 250059
RWRND

NORTH DAKOTA REGIONAL WEATHER ROUNDUP
NATIONAL WEATHER SERVICE BISMARCK ND
800 PM CDT FRI OCT 24 2014

NOTE: "FAIR" INDICATES FEW OR NO CLOUDS BELOW 12,000 FEET WITH NO
SIGNIFICANT WEATHER AND/OR OBSTRUCTIONS TO VISIBILITY.


NDZ001>003-009>011-017-250200-
NORTHWEST NORTH DAKOTA

CITY           SKY/WX    TMP DP  RH WIND       PRES   REMARKS
WILLISTON      PTCLDY    44  27  51 W8        30.00R
MINOT          CLEAR     54  27  35 W16       29.93R
$$

NDZ018>021-031>035-040>046-250200-
SOUTHWEST NORTH DAKOTA

CITY           SKY/WX    TMP DP  RH WIND       PRES   REMARKS
BISMARCK       MOCLDY    57  33  40 W8        29.99R
GARRISON         N/A     52  30  43 W10       29.97R
HETTINGER ARPT CLOUDY    51  35  54 NW5       30.05S
$$

NDZ004>008-012>016-024-026-027-054-250200-
NORTHEAST NORTH DAKOTA

CITY           SKY/WX    TMP DP  RH WIND       PRES   REMARKS
GRAND FORKS    PTCLDY    58  33  39 W9        29.82R
DEVILS LAKE    CLEAR     54  34  47 W13       29.86R
$$

NDZ022-023-025-028>030-036>039-047>053-250200-
SOUTHEAST NORTH DAKOTA

CITY           SKY/WX    TMP DP  RH WIND       PRES   REMARKS
FARGO          MOCLDY    62  34  35 W16       29.86R
$$




USA.gov is the U.S. government's official web portal to all federal, state and local government web resources and services.